Date,TemperatureHighF,TemperatureAvgF,TemperatureLowF,DewpointHighF,DewpointAvgF,DewpointLowF,HumidityHigh,HumidityAvg,HumidityLow,PressureMaxIn,PressureMinIn,WindSpeedMaxMPH,WindSpeedAvgMPH,GustSpeedMaxMPH,PrecipitationSumIn
2013-5-1,66,47,26,30,22,16,79,41,18,30.56,30.30,10,1,10,0.00
2013-5-2,76,54,32,32,25,16,68,35,15,30.59,30.21,10,1,10,0.00
2013-5-3,78,62,50,38,32,25,57,33,21,30.24,30.09,10,2,10,0.00
2013-5-4,78,63,44,40,31,23,68,34,18,30.24,30.03,16,2,16,0.96
2013-5-5,85,64,40,36,29,23,59,30,13,30.06,29.76,13,2,13,0.00
2013-5-6,91,69,46,40,32,24,53,29,10,29.88,29.65,10,1,10,0.00
2013-5-7,93,71,47,40,36,30,62,32,12,29.82,29.71,9,2,9,0.00
2013-5-8,93,74,53,44,38,32,53,30,17,29.97,29.82,59,1,59,0.00
2013-5-9,94,73,53,48,40,28,72,36,11,30.06,29.91,8,1,8,0.00
2013-5-10,96,73,51,44,38,28,69,33,12,30.18,30.00,9,1,9,0.00
2013-5-11,94,72,53,48,41,34,67,36,16,30.15,29.91,10,1,10,0.04
2013-5-12,89,70,56,49,44,39,62,41,21,30.06,29.91,18,2,18,0.00
2013-5-13,74,59,49,49,44,30,86,58,33,30.06,29.91,17,3,17,4.12
2013-5-14,70,55,42,36,29,22,59,39,23,30.18,29.97,17,1,17,0.00
2013-5-15,74,58,39,38,32,26,72,42,21,30.09,29.85,7,1,7,0.00
2013-5-16,74,58,48,46,41,35,80,55,32,29.94,29.79,8,1,8,0.05
2013-5-17,80,61,43,49,40,34,91,53,25,29.91,29.76,13,1,13,0.00
2013-5-18,65,56,49,43,38,34,68,52,35,30.09,29.91,9,1,9,0.00
2013-5-19,74,60,49,43,39,34,71,47,31,30.21,30.09,8,1,8,0.00
2013-5-20,82,64,44,48,40,33,90,48,21,30.24,29.85,8,1,8,0.00
2013-5-21,86,59,42,44,40,34,89,55,19,29.85,29.53,21,3,21,4.37
2013-5-22,54,44,0,42,34,0,92,69,43,30.03,29.79,17,2,17,0.04
2013-5-23,69,51,36,40,33,24,91,56,26,30.03,29.91,7,1,7,4.46
2013-5-24,61,48,35,40,34,29,87,61,36,30.03,29.91,12,1,12,4.46
2013-5-25,71,54,38,45,36,31,90,54,28,30.06,29.97,8,1,8,4.46
2013-5-26,80,62,40,42,36,31,85,45,21,30.00,29.85,12,2,12,4.46
2013-5-27,76,60,52,47,40,34,83,51,25,29.94,29.74,11,1,11,0.00
2013-5-28,72,58,50,49,44,36,89,62,36,29.82,29.74,10,1,10,0.04
2013-5-29,71,56,48,46,41,34,85,58,33,29.82,29.62,16,2,16,0.16
2013-5-30,70,57,46,46,36,29,84,50,25,30.09,29.82,23,3,23,0.04
2013-5-31,76,60,40,39,33,28,76,39,21,30.21,30.06,7,1,7,4.66